Weather reports worldwide

Advertisment
Gueret-St Laurent, France (7361): temperature & dewpoint: 08.07.2020 10:00:00 - 14.07.2020 10:00:00 (CEST)Gueret-St Laurent, France (7361): temperature 5cm: 08.07.2020 10:00:00 - 14.07.2020 10:00:00 (CEST)Gueret-St Laurent, France (7361): temperature -20cm & temperature -100cm: 08.07.2020 10:00:00 - 14.07.2020 10:00:00 (CEST)Gueret-St Laurent, France (7361): wind speed & gusts: 08.07.2020 10:00:00 - 14.07.2020 10:00:00 (CEST)Gueret-St Laurent, France (7361): wind direction: 08.07.2020 10:00:00 - 14.07.2020 10:00:00 (CEST)Gueret-St Laurent, France (7361): reduced air pressure: 08.07.2020 10:00:00 - 14.07.2020 10:00:00 (CEST)Gueret-St Laurent, France (7361): visibility: 08.07.2020 10:00:00 - 14.07.2020 10:00:00 (CEST)Gueret-St Laurent, France (7361): sunshine duration: 08.07.2020 10:00:00 - 14.07.2020 10:00:00 (CEST)Gueret-St Laurent, France (7361): precipitation: 08.07.2020 10:00:00 - 14.07.2020 10:00:00 (CEST)
Date & Time tt [°C] td [°C] tt 5cm [°C] tt -20cm [°C] tt -100cm [°C] ff [km/h] ff [kn] fx [km/h] fx [kn] dd ppp [hPa] vv [km] sd [min] rr [mm]
14.07.2020 10:00:00 17,2 9,9 17,0 19,5 17,4 2 1 4 2 E 1018,6 20 14 0,0
14.07.2020 09:00:00 13,9 9,5 11,8 19,6 17,4 3 1 10 5 E 1019,2 20 50 0,0
14.07.2020 08:00:00 10,7 8,8 8,3 19,6 17,4 6 4 10 6 ESE 1019,8 20 45 0,0
14.07.2020 07:00:00 8,7 8,1 4,0 19,7 17,4 6 3 10 6 ESE 1020,3 20 20 0,0
14.07.2020 06:00:00 7,5 6,9 4,1 19,8 17,4 3 2 8 4 E 1020,5 20 0 0,0
14.07.2020 05:00:00 7,7 6,8 4,5 19,8 17,4 4 2 9 5 E 1020,4 20 0 0,0
14.07.2020 04:00:00 8,2 7,3 4,6 19,8 17,4 5 3 8 4 E 1020,7 20 0 0,0
14.07.2020 03:00:00 9,1 8,0 5,1 19,8 17,4 0 0 5 3 N 1020,7 20 0 0,0
14.07.2020 02:00:00 10,0 8,9 6,3 19,8 17,4 4 2 5 3 E 1021,0 20 0 0,0
14.07.2020 01:00:00 10,9 9,0 7,4 19,8 17,4 0 0 4 2 N 1021,0 20 0 0,0
14.07.2020 00:00:00 12,6 9,8 8,2 19,7 17,4 0 0 4 2 N 1020,9 20 0 0,0
13.07.2020 23:00:00 15,2 8,7 10,3 19,7 17,4 0 0 5 3 N 1020,5 20 0 0,0
13.07.2020 22:00:00 17,9 8,7 12,2 19,5 17,4 4 2 5 3 W 1019,9 12 15 0,0
13.07.2020 21:00:00 22,6 7,9 18,0 19,5 17,4 4 2 15 8 NW 1018,9 20 45 0,0
13.07.2020 20:00:00 24,5 6,7 24,0 19,3 17,4 9 5 20 11 NNW 1018,5 20 55 0,0
13.07.2020 19:00:00 26,1 7,6 28,2 19,3 17,4 7 4 26 14 NW 1018,4 20 60 0,0
13.07.2020 18:00:00 26,3 8,3 30,6 19,2 17,4 9 5 24 13 WNW 1018,6 20 60 0,0
13.07.2020 17:00:00 26,4 8,4 33,2 19,2 17,4 8 4 26 14 NNW 1019,1 20 60 0,0
13.07.2020 16:00:00 26,1 8,1 38,0 19,1 17,4 13 7 27 15 NNE 1019,6 20 60 0,0
13.07.2020 15:00:00 26,0 8,5 41,5 19,1 17,4 8 4 29 16 N 1019,9 20 60 0,0
13.07.2020 14:00:00 25,5 8,5 40,2 19,1 17,4 11 6 29 15 NNW 1020,2 20 56 0,0
13.07.2020 13:00:00 25,5 8,5 36,8 19,2 17,4 10 5 26 14 NE 1020,4 20 60 0,0
13.07.2020 12:00:00 24,8 8,7 33,8 19,2 17,4 11 6 22 12 NNE 1020,8 20 60 0,0
13.07.2020 11:00:00 22,3 11,4 28,5 19,3 17,4 4 2 9 5 NW 1021,3 20 60 0,0
13.07.2020 10:00:00 20,0 10,7 19,6 19,4 17,4 0 0 6 3 N 1021,7 20 60 0,0
13.07.2020 09:00:00 15,8 10,3 12,1 19,5 17,4 0 0 4 2 N 1022,4 20 60 0,0
13.07.2020 08:00:00 11,1 8,7 5,0 19,6 17,4 2 1 6 3 E 1023,0 20 60 0,0
13.07.2020 07:00:00 7,5 7,2 3,2 19,6 17,4 4 2 5 3 E 1023,3 20 17 0,0
13.07.2020 06:00:00 6,6 5,9 3,3 19,7 17,4 2 1 6 3 E 1023,1 20 0 0,0
13.07.2020 05:00:00 7,2 6,3 3,8 19,7 17,4 2 1 5 3 ESE 1022,8 20 0 0,0
13.07.2020 04:00:00 8,0 6,9 4,5 19,7 17,4 0 0 5 3 N 1022,7 20 0 0,0
13.07.2020 03:00:00 8,6 7,2 5,9 19,7 17,4 2 1 8 4 SSE 1022,7 20 0 0,0
13.07.2020 02:00:00 9,9 7,7 7,3 19,7 17,4 2 1 14 7 SSE 1022,6 20 0 0,0
13.07.2020 01:00:00 11,0 7,9 7,6 19,7 17,4 2 1 8 4 S 1022,7 20 0 0,0
13.07.2020 00:00:00 12,4 7,9 8,1 19,6 17,4 0 0 5 3 N 1022,6 20 0 0,0
12.07.2020 23:00:00 14,8 7,8 10,0 19,6 17,4 2 1 6 3 S 1021,9 20 0 0,0
12.07.2020 22:00:00 18,2 7,9 12,2 19,5 17,4 2 1 16 8 NW 1020,9 0,6 0 0,0
12.07.2020 21:00:00 22,0 7,4 18,5 19,4 17,4 10 5 24 13 N 1019,9 20 46 0,0
12.07.2020 20:00:00 24,3 7,4 23,8 19,3 17,4 16 9 26 14 NNE 1019,6 20 60 0,0
12.07.2020 19:00:00 25,2 7,3 26,4 19,2 17,4 14 7 30 16 NNE 1019,5 20 60 0,0
12.07.2020 18:00:00 25,8 7,8 29,3 19,2 17,4 13 7 32 17 NNE 1019,5 20 60 0,0
12.07.2020 17:00:00 25,9 7,5 31,4 19,1 17,4 14 8 30 16 NNE 1019,8 20 60 0,0
12.07.2020 16:00:00 25,5 7,1 35,9 19,1 17,4 11 6 32 17 ENE 1020,6 20 60 0,0
12.07.2020 15:00:00 25,6 8,1 38,7 19,1 17,4 12 7 29 16 E 1021,4 20 60 0,0
12.07.2020 14:00:00 23,9 7,9 35,7 19,1 17,4 11 6 33 18 E 1022,0 20 60 0,0
12.07.2020 13:00:00 22,7 7,3 32,3 19,2 17,4 20 11 36 19 ENE 1022,2 20 60 0,0
12.07.2020 12:00:00 22,1 6,7 30,8 19,3 17,4 23 12 48 26 NE 1022,1 20 60 0,0
12.07.2020 11:00:00 21,0 7,9 26,1 19,3 17,4 14 7 27 14 E 1022,6 20 60 0,0
12.07.2020 10:00:00 19,2 7,6 19,3 19,5 17,4 13 7 25 14 ENE 1023,1 20 60 0,0
12.07.2020 09:00:00 16,6 8,3 11,5 19,5 17,4 0 0 4 2 N 1023,5 20 60 0,0
12.07.2020 08:00:00 11,5 9,2 3,9 19,6 17,4 0 0 5 3 N 1024,0 20 60 0,0
12.07.2020 07:00:00 7,0 6,6 1,8 19,7 17,4 0 0 3 2 N 1024,1 20 21 0,0
12.07.2020 06:00:00 5,9 5,0 1,9 19,7 17,4 0 0 3 1 N 1024,1 20 0 0,0
12.07.2020 05:00:00 6,6 4,9 3,1 19,8 17,4 0 0 4 2 N 1024,2 20 0 0,0
12.07.2020 04:00:00 8,4 5,9 4,6 19,8 17,4 4 2 7 4 S 1024,0 20 0 0,0
12.07.2020 03:00:00 8,9 6,5 6,0 19,8 17,4 4 2 6 4 S 1023,9 20 0 0,0
12.07.2020 02:00:00 11,7 6,2 6,2 19,8 17,4 4 2 23 12 S 1023,5 20 0 0,0
12.07.2020 01:00:00 11,0 6,9 6,1 19,8 17,4 4 2 9 5 ENE 1023,8 20 0 0,0
12.07.2020 00:00:00 12,2 7,3 7,2 19,8 17,4 3 2 5 3 S 1023,9 20 0 0,0
11.07.2020 23:00:00 15,1 6,9 9,8 19,7 17,4 7 4 15 8 NNE 1023,5 20 0 0,0
11.07.2020 22:00:00 17,1 6,9 12,3 19,6 17,4 9 5 16 9 NNE 1022,6 20 0 0,0
11.07.2020 21:00:00 20,3 7,3 17,5 19,7 17,4 11 6 25 14 NNE 1021,9 20 48 0,0
11.07.2020 20:00:00 22,0 7,0 21,9 19,4 17,3 14 7 25 13 NNE 1021,7 20 60 0,0
11.07.2020 19:00:00 22,7 6,4 24,5 19,4 17,3 14 7 27 14 N 1021,6 20 60 0,0
11.07.2020 18:00:00 22,7 5,1 26,4 19,3 17,4 18 10 30 16 NNE 1021,8 20 60 0,0
11.07.2020 17:00:00 23,0 7,9 29,3 19,3 17,3 18 10 29 16 N 1022,0 20 60 0,0
11.07.2020 16:00:00 22,6 7,9 34,4 19,3 17,4 12 6 29 16 N 1022,1 20 60 0,0
11.07.2020 15:00:00 22,1 7,5 36,6 19,3 17,3 14 8 33 18 NNW 1022,5 20 60 0,0
11.07.2020 14:00:00 20,9 8,2 30,0 19,3 17,4 14 7 29 15 N 1022,9 20 47 0,0
11.07.2020 13:00:00 21,2 10,1 27,5 19,4 17,3 13 7 31 17 NNE 1022,9 20 49 0,0
11.07.2020 12:00:00 20,2 9,4 23,9 19,4 17,3 17 9 29 16 N 1023,1 20 40 0,0
11.07.2020 11:00:00 19,0 10,0 25,2 19,5 17,3 9 5 22 12 NE 1023,1 20 55 0,0
11.07.2020 10:00:00 18,3 11,1 19,6 19,6 17,3 11 6 19 10 ENE 1023,1 20 60 0,0
11.07.2020 09:00:00 16,2 10,3 13,4 19,7 17,3 0 0 5 3 N 1023,3 20 60 0,0
11.07.2020 08:00:00 13,4 11,8 6,6 19,7 17,3 0 0 4 2 N 1023,3 20 60 0,0
11.07.2020 07:00:00 9,0 8,7 5,3 19,8 17,3 0 0 13 7 N 1023,8 20 22 0,0
11.07.2020 06:00:00 8,4 7,8 5,0 19,8 17,3 2 1 6 3 W 1023,5 5 0 0,0
11.07.2020 05:00:00 9,5 8,9 5,4 19,8 17,3 3 2 6 3 SSW 1022,7 19 0 0,0
11.07.2020 04:00:00 10,6 9,5 6,7 19,8 17,3 0 0 7 4 N 1022,4 20 0 0,0
11.07.2020 03:00:00 12,1 10,5 7,9 19,8 17,3 0 0 3 2 N 1021,9 20 0 0,0
11.07.2020 02:00:00 14,2 11,9 12,7 19,9 17,3 0 0 3 1 N 1021,4 20 0 0,0
11.07.2020 01:00:00 15,4 12,0 14,5 19,8 17,3 0 0 5 3 N 1021,3 20 0 0,0
11.07.2020 00:00:00 16,2 11,6 14,8 19,8 17,3 4 2 14 8 WNW 1021,2 20 0 0,0
10.07.2020 23:00:00 17,1 12,4 15,5 19,8 17,3 8 4 18 10 N 1020,5 20 0 0,0
10.07.2020 22:00:00 17,4 13,1 16,0 19,8 17,3 0 0 6 4 N 1019,5 3,4 0 0,0
10.07.2020 21:00:00 18,9 13,1 18,3 19,7 17,3 3 2 16 9 NW 1018,7 19 0 0,0
10.07.2020 20:00:00 19,8 13,0 20,5 19,7 17,3 7 4 21 12 NNW 1018,1 20 2 0,0
10.07.2020 19:00:00 20,9 13,3 21,9 19,7 17,3 9 5 22 12 NW 1017,4 20 2 0,0
10.07.2020 18:00:00 21,3 13,7 24,4 19,7 17,3 11 6 24 13 NW 1017,3 20 12 0,0
10.07.2020 17:00:00 22,7 14,0 25,9 19,6 17,3 9 5 23 13 WNW 1017,2 20 22 0,0
10.07.2020 16:00:00 22,6 14,4 25,6 19,6 17,3 10 6 23 13 WSW 1017,4 20 16 0,0
10.07.2020 15:00:00 21,3 14,9 25,0 19,6 17,3 10 5 24 13 WSW 1017,6 20 5 0,0
10.07.2020 14:00:00 20,8 14,4 23,8 19,7 17,3 9 5 24 13 WNW 1017,9 20 4 0,0
10.07.2020 13:00:00 20,6 14,0 23,8 19,7 17,3 10 6 23 12 WSW 1018,0 20 2 0,0
10.07.2020 12:00:00 20,1 14,0 23,6 19,7 17,3 7 4 20 11 W 1017,7 20 14 0,0
10.07.2020 11:00:00 19,3 13,9 22,8 19,8 17,3 6 4 16 8 SW 1018,0 20 33 0,0
10.07.2020 10:00:00 17,2 13,9 18,4 19,8 17,3 5 3 16 9 SW 1018,1 20 7 0,0
10.07.2020 09:00:00 16,2 13,3 16,0 19,9 17,3 8 4 18 10 W 1018,2 20 1 0,0
10.07.2020 08:00:00 15,4 13,8 11,9 19,9 17,3 8 4 19 10 W 1017,9 20 38 0,0
10.07.2020 07:00:00 13,1 12,5 9,6 20,0 17,3 3 2 9 5 WSW 1017,4 20 19 0,0
10.07.2020 06:00:00 12,9 11,3 9,8 20,0 17,3 2 1 9 5 SW 1017,2 20 0 0,0
10.07.2020 05:00:00 13,3 12,7 10,0 20,1 17,3 0 0 5 3 N 1017,1 19 0 0,0
10.07.2020 04:00:00 13,8 12,9 10,3 20,1 17,2 0 0 4 2 N 1017,0 18 0 0,0
10.07.2020 03:00:00 14,9 13,8 10,8 20,0 17,3 2 1 4 2 ESE 1017,0 20 0 0,0
10.07.2020 02:00:00 15,9 14,1 11,8 20,0 17,3 0 0 5 3 N 1016,9 20 0 0,0
10.07.2020 01:00:00 17,4 14,3 13,3 20,0 17,3 2 1 5 3 ESE 1016,6 20 0 0,0
10.07.2020 00:00:00 19,0 14,7 14,6 19,9 17,3 0 0 5 3 N 1016,4 20 0 0,0
09.07.2020 23:00:00 19,8 15,2 15,4 19,8 17,3 2 1 6 4 E 1015,8 20 0 0,0
09.07.2020 22:00:00 23,2 14,7 17,4 19,7 17,2 4 2 11 6 SW 1014,7 1,6 2 0,0
09.07.2020 21:00:00 26,7 14,8 22,3 19,6 17,2 4 2 12 6 WSW 1013,8 20 48 0,0
09.07.2020 20:00:00 29,1 14,5 27,3 19,5 17,3 6 3 16 9 W 1013,6 20 60 0,0
09.07.2020 19:00:00 30,0 14,5 30,3 19,4 17,3 7 4 22 12 WSW 1013,5 20 60 0,0
09.07.2020 18:00:00 30,2 14,7 32,4 19,3 17,2 9 5 24 13 SW 1013,9 20 60 0,0
09.07.2020 17:00:00 30,5 13,7 34,4 19,3 17,2 11 6 24 13 SSW 1014,3 20 60 0,0
09.07.2020 16:00:00 30,6 12,9 39,4 19,2 17,2 14 7 25 14 SSW 1014,5 20 60 0,0
09.07.2020 15:00:00 30,3 12,7 42,4 19,2 17,2 11 6 25 14 SSW 1014,8 20 60 0,0
09.07.2020 14:00:00 29,9 13,2 44,2 19,2 17,2 8 4 18 10 SW 1015,2 20 60 0,0
09.07.2020 13:00:00 29,0 14,4 40,9 19,2 17,3 7 4 18 10 NNW 1015,6 20 60 0,0
09.07.2020 12:00:00 27,7 14,0 36,0 19,3 17,2 2 1 13 7 N 1015,8 20 60 0,0
09.07.2020 11:00:00 25,9 15,3 28,0 19,3 17,2 3 1 8 4 SE 1016,2 20 60 0,0
09.07.2020 10:00:00 22,1 14,7 20,9 19,4 17,3 2 1 6 4 ENE 1016,8 20 54 0,0
09.07.2020 09:00:00 17,6 13,1 15,3 19,5 17,2 4 2 7 4 E 1017,6 20 56 0,0
09.07.2020 08:00:00 14,7 11,7 9,3 19,5 17,2 2 1 4 2 E 1017,9 20 60 0,0
09.07.2020 07:00:00 11,6 10,8 8,2 19,6 17,3 0 0 8 4 N 1018,4 20 24 0,0
09.07.2020 06:00:00 11,5 10,2 8,2 19,6 17,2 6 3 13 7 ESE 1018,4 20 0 0,2
09.07.2020 05:00:00 11,0 9,9 7,1 19,7 17,2 5 3 13 7 E 1018,6 20 0 0,0
09.07.2020 04:00:00 10,8 10,0 7,5 19,7 17,3 0 0 5 3 N 1018,8 20 0 0,0
09.07.2020 03:00:00 11,7 10,9 7,9 19,7 17,2 2 1 6 3 E 1019,1 20 0 0,0
09.07.2020 02:00:00 12,3 11,0 8,9 19,7 17,3 4 2 8 4 E 1019,5 20 0 0,0
09.07.2020 01:00:00 13,5 11,7 9,6 19,6 17,3 3 2 5 3 E 1019,3 20 0 0,0
09.07.2020 00:00:00 15,2 12,9 10,8 19,6 17,3 3 2 6 3 SSE 1018,8 20 0 0,0
08.07.2020 23:00:00 17,4 12,5 12,5 19,5 17,2 0 0 7 4 N 1017,9 20 0 0,0
08.07.2020 22:00:00 20,2 12,7 14,6 19,4 17,3 0 0 10 6 N 1016,7 7 0 0,0
08.07.2020 21:00:00 24,2 12,2 19,0 19,3 17,2 6 3 14 8 N 1016,1 20 43 0,0
08.07.2020 20:00:00 26,9 11,0 26,0 19,2 17,3 11 6 18 10 N 1015,9 20 60 0,0
08.07.2020 19:00:00 27,6 11,6 28,2 19,1 17,2 10 5 19 11 N 1016,1 20 60 0,0
08.07.2020 18:00:00 28,0 11,5 30,4 19,0 17,2 11 6 19 11 NNE 1016,4 19 60 0,0
08.07.2020 17:00:00 28,1 11,2 32,8 18,9 17,2 11 6 18 10 ENE 1016,8 20 60 0,0
08.07.2020 16:00:00 27,8 10,9 39,1 18,9 17,2 10 5 19 10 ENE 1017,2 20 60 0,0
08.07.2020 15:00:00 26,8 10,5 42,0 18,9 17,2 8 4 20 11 NE 1017,6 19 60 0,0
08.07.2020 14:00:00 26,0 11,0 41,9 18,9 17,2 9 5 20 11 ENE 1017,8 20 60 0,0
08.07.2020 13:00:00 25,8 11,2 38,2 19,0 17,2 4 2 18 10 N 1018,1 20 60 0,0
08.07.2020 12:00:00 24,2 9,4 32,5 19,0 17,2 8 5 16 9 NE 1018,7 20 60 0,0
08.07.2020 11:00:00 22,8 10,6 28,8 19,1 17,2 4 2 14 8 NE 1018,7 20 60 0,0
08.07.2020 10:00:00 19,9 11,1 19,0 19,2 17,2 3 2 10 6 E 1019,1 20 60 0,0

tt = temperature
td = dewpoint
tt 5cm = temperature 5cm
tt -20cm = temperature -20cm
tt -100cm = temperature -100cm
ff = wind speed
fx = gusts
dd = wind direction
ppp = reduced air pressure
vv = visibility
sd = sunshine duration
rr = precipitation

Next stations